7 * 24
多渠道服务支持
STARLINK-34562是美国太空探索技术公司(SpaceX)星链(Starlink)星座的卫星,于2025年7月2日发射入轨。星链项目旨在构建全球卫星互联网星座,为全球偏远、欠发达地区提供高速宽带网络服务。STARLINK-34562将进一步扩充星链星座规模,提升星座整体服务覆盖能力与网络稳定性,助力全球互联网接入服务普及。
美国
(US)
| 数据来源 | 国际轨道数据 |
| 星历时间: | 2026-09-03T06:47:46+0800 1天前 查看轨道信息 |
| 半长轴: | 6840.802km |
| 偏心率: | 0.0000563 |
| 轨道倾角: | 53.160° |
| 近地点辐角 | 79.929° |
| 升交点赤经 | 77.516° |
| 平近点角 | 280.178° |
| 近地点: | 462.279km |
| 远地点: | 463.051km |
| 周期: | 93.847分钟 |
| 每日圈数: | 15.344132 |
| 事件ID | 空间交会对象 | 最接近时刻(TCA) | 交会距离 | 交会风险概率(CRP) | 交会风险指数(CRI) | 操作 |
|---|---|---|---|---|---|---|
| CDM_260827-215206-472506-542821 |
STARLINK-34562
(64725)
STARLINK-35004
(65428) | 2026-08-27T 21:52:51+0000 |
0.523 km
远距离 | 9.793707E-5 中风险 | 0.75 | |
| CDM_260904-115706-387406-472521 |
STARLINK-34052
(63874)
STARLINK-34562
(64725) | 2026-09-04T 11:57:03+0000 |
1.878 km
极远距离 | 2.31515E-6 低风险 | 0.42 | |
| CDM_260827-224706-472506-816121 |
STARLINK-34562
(64725)
STARLINK-37057
(68161) | 2026-08-27T 22:47:38+0000 |
2.483 km
极远距离 | 1.752525E-6 低风险 | 0.4 | |
| CDM_260903-121505-284206-472521 |
STARLINK-4046
(52842)
STARLINK-34562
(64725) | 2026-09-03T 12:15:11+0000 |
2.590 km
极远距离 | 1.384121E-6 低风险 | 0.38 |